BAW57B EDDP-LKPR

Flight info

Callsign BAW57B
Flight time 0h 29m
Altitude 17000
Route DCT DRN T620 LALUK DCT GOLOP/N0366F160
Aircraft B77W/H-SDE1E3FGHIJ3J4J5J6M1M2P2RWXYZ/LB1D1

Departure

Time 2026-05-05 07:31
Airport Leipzig/Halle Airport (EDDP)

Arrival

Time 2026-05-05 08:01
Airport Václav Havel Airport Prague (LKPR)
Time Latitude Longitude Altitude Speed Heading
2026-05-05 07:12 51.41903 12.21950 447 ft 0 kts 15°
2026-05-05 07:22 51.41902 12.21949 447 ft 2 kts 15°
2026-05-05 07:22 51.41886 12.21942 447 ft 2 kts 15°
2026-05-05 07:22 51.41870 12.21935 447 ft 2 kts 13°
2026-05-05 07:22 51.41854 12.21933 447 ft 2 kts 351°
2026-05-05 07:23 51.41839 12.21940 449 ft 2 kts 335°
2026-05-05 07:23 51.41825 12.21953 448 ft 2 kts 314°
2026-05-05 07:23 51.41816 12.21975 449 ft 2 kts 290°
2026-05-05 07:23 51.41816 12.21972 449 ft 2 kts 284°
2026-05-05 07:24 51.41816 12.21971 449 ft 0 kts 284°
2026-05-05 07:25 51.41816 12.21969 449 ft 2 kts 285°
2026-05-05 07:26 51.41829 12.21888 448 ft 11 kts 285°
2026-05-05 07:26 51.41849 12.21770 446 ft 11 kts 285°
2026-05-05 07:26 51.41870 12.21650 433 ft 11 kts 285°
2026-05-05 07:26 51.41891 12.21530 437 ft 11 kts 286°
2026-05-05 07:27 51.41912 12.21411 435 ft 11 kts 285°
2026-05-05 07:27 51.41933 12.21292 430 ft 11 kts 285°
2026-05-05 07:27 51.41953 12.21172 421 ft 11 kts 285°
2026-05-05 07:27 51.41974 12.21052 433 ft 11 kts 285°
2026-05-05 07:28 51.41990 12.20947 431 ft 7 kts 274°
2026-05-05 07:28 51.41960 12.20886 427 ft 8 kts 210°
2026-05-05 07:28 51.41902 12.20855 423 ft 11 kts 194°
2026-05-05 07:28 51.41815 12.20819 434 ft 15 kts 195°
2026-05-05 07:29 51.41716 12.20776 422 ft 15 kts 195°
2026-05-05 07:29 51.41616 12.20731 431 ft 15 kts 195°
2026-05-05 07:29 51.41515 12.20688 435 ft 15 kts 195°
2026-05-05 07:29 51.41415 12.20645 447 ft 15 kts 194°
2026-05-05 07:30 51.41314 12.20600 447 ft 15 kts 196°
2026-05-05 07:30 51.41186 12.20543 445 ft 5 kts 186°
2026-05-05 07:30 51.41167 12.20582 436 ft 6 kts 102°
2026-05-05 07:31 51.41171 12.20688 433 ft 22 kts 85°
2026-05-05 07:31 51.41204 12.21381 456 ft 106 kts 85°
2026-05-05 07:31 51.41277 12.22984 525 ft 173 kts 86°
2026-05-05 07:31 51.41358 12.24972 1249 ft 184 kts 85°
2026-05-05 07:32 51.41448 12.27064 2072 ft 196 kts 86°
2026-05-05 07:32 51.41549 12.29384 2447 ft 222 kts 86°
2026-05-05 07:32 51.41672 12.31973 2638 ft 242 kts 86°
2026-05-05 07:32 51.41804 12.34749 2959 ft 255 kts 86°
2026-05-05 07:33 51.41940 12.37628 3622 ft 262 kts 86°
2026-05-05 07:33 51.42078 12.40589 4631 ft 269 kts 86°
2026-05-05 07:33 51.42219 12.43601 5674 ft 274 kts 86°
2026-05-05 07:33 51.42354 12.46673 6645 ft 278 kts 89°
2026-05-05 07:34 51.42079 12.49756 7407 ft 284 kts 109°
2026-05-05 07:34 51.41322 12.52653 8347 ft 287 kts 119°
2026-05-05 07:34 51.40357 12.55514 9384 ft 290 kts 122°
2026-05-05 07:34 51.39358 12.58307 10273 ft 297 kts 123°
2026-05-05 07:35 51.38283 12.61280 10687 ft 322 kts 123°
2026-05-05 07:35 51.37108 12.64538 10932 ft 352 kts 122°
2026-05-05 07:35 51.35862 12.68028 11545 ft 367 kts 122°
2026-05-05 07:35 51.34587 12.71629 12405 ft 375 kts 122°
2026-05-05 07:36 51.33297 12.75289 13383 ft 380 kts 122°
2026-05-05 07:36 51.31990 12.79001 14345 ft 383 kts 122°
2026-05-05 07:36 51.30677 12.82733 15241 ft 389 kts 123°
2026-05-05 07:36 51.29340 12.86523 15761 ft 393 kts 123°
2026-05-05 07:37 51.27995 12.90336 16255 ft 394 kts 123°
2026-05-05 07:37 51.26638 12.94174 16564 ft 398 kts 123°
2026-05-05 07:37 51.25271 12.98029 16810 ft 399 kts 123°
2026-05-05 07:37 51.23810 13.01793 16874 ft 398 kts 127°
2026-05-05 07:38 51.22255 13.05391 16893 ft 388 kts 130°
2026-05-05 07:38 51.20543 13.08547 16895 ft 376 kts 137°
2026-05-05 07:38 51.18731 13.11536 16901 ft 374 kts 137°
2026-05-05 07:38 51.16917 13.14502 16902 ft 374 kts 138°
2026-05-05 07:39 51.15101 13.17467 16902 ft 374 kts 137°
2026-05-05 07:39 51.13287 13.20437 16906 ft 374 kts 137°
2026-05-05 07:39 51.11473 13.23413 16899 ft 375 kts 137°
2026-05-05 07:39 51.09659 13.26397 16897 ft 375 kts 137°
2026-05-05 07:40 51.07844 13.29381 16899 ft 375 kts 137°
2026-05-05 07:40 51.06027 13.32370 16899 ft 375 kts 137°
2026-05-05 07:40 51.04214 13.35351 16892 ft 375 kts 137°
2026-05-05 07:40 51.02400 13.38330 16890 ft 375 kts 137°
2026-05-05 07:41 51.00584 13.41311 16894 ft 375 kts 137°
2026-05-05 07:41 50.98769 13.44285 16892 ft 375 kts 137°
2026-05-05 07:41 50.96951 13.47262 16889 ft 375 kts 137°
2026-05-05 07:41 50.95138 13.50225 16899 ft 375 kts 137°
2026-05-05 07:42 50.93320 13.53193 16887 ft 375 kts 137°
2026-05-05 07:42 50.91507 13.56150 16886 ft 374 kts 137°
2026-05-05 07:42 50.89695 13.59102 16889 ft 373 kts 137°
2026-05-05 07:42 50.87886 13.62046 16892 ft 373 kts 137°
2026-05-05 07:43 50.86685 13.64000 16889 ft 373 kts 137°
2026-05-05 07:43 50.84877 13.66936 16888 ft 373 kts 137°
2026-05-05 07:43 50.83061 13.69881 16896 ft 373 kts 137°
2026-05-05 07:43 50.80663 13.73764 16890 ft 373 kts 137°
2026-05-05 07:44 50.79436 13.75750 16897 ft 373 kts 137°
2026-05-05 07:44 50.77561 13.78559 16891 ft 370 kts 144°
2026-05-05 07:44 50.75494 13.80949 16898 ft 368 kts 148°
2026-05-05 07:44 50.73389 13.83250 16886 ft 368 kts 148°
2026-05-05 07:45 50.71306 13.85515 16885 ft 369 kts 148°
2026-05-05 07:45 50.69166 13.87848 16907 ft 369 kts 148°
2026-05-05 07:45 50.67053 13.90157 16884 ft 370 kts 148°
2026-05-05 07:45 50.64938 13.92474 16884 ft 370 kts 148°
2026-05-05 07:46 50.62857 13.94760 16880 ft 370 kts 148°
2026-05-05 07:46 50.60748 13.97077 16880 ft 370 kts 148°
2026-05-05 07:46 50.58635 13.99399 16896 ft 369 kts 148°
2026-05-05 07:46 50.56556 14.01684 16827 ft 360 kts 148°
2026-05-05 07:47 50.54503 14.03937 16404 ft 360 kts 148°
2026-05-05 07:47 50.52455 14.06181 15990 ft 357 kts 148°
2026-05-05 07:47 50.50423 14.08407 15522 ft 354 kts 148°
2026-05-05 07:47 50.48405 14.10612 15075 ft 352 kts 148°
2026-05-05 07:48 50.46398 14.12803 14635 ft 350 kts 148°
2026-05-05 07:48 50.44402 14.14982 14180 ft 349 kts 148°
2026-05-05 07:48 50.42404 14.17160 13726 ft 348 kts 148°
2026-05-05 07:48 50.40416 14.19323 13242 ft 348 kts 148°
2026-05-05 07:49 50.38436 14.21480 12742 ft 346 kts 148°
2026-05-05 07:49 50.36474 14.23615 12403 ft 341 kts 148°
2026-05-05 07:49 50.34556 14.25697 11967 ft 339 kts 148°
2026-05-05 07:49 50.32596 14.27822 11514 ft 337 kts 148°
2026-05-05 07:50 50.30692 14.29883 11092 ft 336 kts 147°
2026-05-05 07:50 50.28779 14.31950 10627 ft 334 kts 147°
2026-05-05 07:50 50.26866 14.34018 10204 ft 333 kts 147°
2026-05-05 07:50 50.24967 14.36073 9749 ft 329 kts 147°
2026-05-05 07:51 50.23120 14.38072 9259 ft 316 kts 147°
2026-05-05 07:51 50.21315 14.40017 8840 ft 315 kts 147°
2026-05-05 07:51 50.19512 14.41955 8412 ft 315 kts 147°
2026-05-05 07:51 50.17707 14.43896 7983 ft 314 kts 147°
2026-05-05 07:52 50.15907 14.45831 7602 ft 314 kts 146°
2026-05-05 07:52 50.14112 14.47765 7201 ft 313 kts 146°
2026-05-05 07:52 50.12318 14.49686 6779 ft 313 kts 146°
2026-05-05 07:52 50.10545 14.51590 6370 ft 309 kts 146°
2026-05-05 07:53 50.08766 14.53496 5935 ft 309 kts 146°
2026-05-05 07:53 50.07002 14.55383 5682 ft 302 kts 146°
2026-05-05 07:53 50.05363 14.57241 5528 ft 281 kts 137°
2026-05-05 07:53 50.04134 14.59468 5407 ft 262 kts 127°
2026-05-05 07:54 50.03111 14.61662 5253 ft 247 kts 126°
2026-05-05 07:54 50.02007 14.63628 4948 ft 238 kts 145°
2026-05-05 07:54 50.00497 14.64496 4651 ft 233 kts 176°
2026-05-05 07:54 49.98931 14.63965 4420 ft 232 kts 207°
2026-05-05 07:55 49.97626 14.62516 4189 ft 230 kts 218°
2026-05-05 07:55 49.96428 14.60918 4035 ft 220 kts 220°
2026-05-05 07:55 49.95515 14.59090 4002 ft 219 kts 248°
2026-05-05 07:55 49.95398 14.56787 3996 ft 215 kts 285°
2026-05-05 07:56 49.96107 14.54760 4062 ft 218 kts 307°
2026-05-05 07:56 49.97050 14.52861 4015 ft 222 kts 308°
2026-05-05 07:56 49.97987 14.50969 3969 ft 218 kts 308°
2026-05-05 07:56 49.98885 14.49127 3990 ft 213 kts 308°
2026-05-05 07:57 49.99771 14.47308 3992 ft 214 kts 308°
2026-05-05 07:57 50.00666 14.45467 3999 ft 213 kts 308°
2026-05-05 07:57 50.01574 14.43592 3695 ft 220 kts 308°
2026-05-05 07:57 50.02487 14.41703 3423 ft 215 kts 308°
2026-05-05 07:58 50.03359 14.39912 3161 ft 202 kts 308°
2026-05-05 07:58 50.04183 14.38207 2890 ft 191 kts 309°
2026-05-05 07:58 50.04949 14.36626 2653 ft 172 kts 309°
2026-05-05 07:58 50.05638 14.35199 2429 ft 160 kts 310°
2026-05-05 07:59 50.06274 14.33878 2106 ft 146 kts 309°
2026-05-05 07:59 50.06884 14.32626 1918 ft 146 kts 311°
2026-05-05 07:59 50.07494 14.31383 1760 ft 143 kts 309°
2026-05-05 07:59 50.08090 14.30136 1589 ft 145 kts 310°
2026-05-05 08:00 50.08691 14.28890 1386 ft 142 kts 310°
2026-05-05 08:00 50.09268 14.27705 1253 ft 131 kts 309°
2026-05-05 08:00 50.09755 14.26703 1213 ft 95 kts 307°
2026-05-05 08:00 50.10059 14.26075 1191 ft 52 kts 307°
2026-05-05 08:01 50.10215 14.25761 1189 ft 20 kts 315°
2026-05-05 08:01 50.10337 14.25668 1188 ft 20 kts 347°
2026-05-05 08:01 50.10464 14.25674 1188 ft 18 kts 15°
2026-05-05 08:01 50.10576 14.25755 1187 ft 18 kts 34°
2026-05-05 08:02 50.10679 14.25866 1182 ft 19 kts 35°
2026-05-05 08:02 50.10794 14.25992 1177 ft 21 kts 35°
2026-05-05 08:02 50.10864 14.26080 1172 ft 11 kts 58°
2026-05-05 08:02 50.10855 14.26195 1175 ft 11 kts 116°
2026-05-05 08:03 50.10816 14.26302 1173 ft 11 kts 122°
2026-05-05 08:03 50.10806 14.26375 1175 ft 7 kts 69°
2026-05-05 08:03 50.10831 14.26435 1175 ft 7 kts 46°
2026-05-05 08:03 50.10851 14.26461 1175 ft 0 kts 34°